GW5002 Weather Reports


time (UTC)temp
F
wind
direction
speed
knots
gust
knots
rain 1hr
in
rain 24hr
in
rain mn
in
humidity
%
barometer
mb
20260507040005 74 217 0.0 0.0 0.00 0.00 0.00 83 1014.0
20260507034511 74 226 0.0 0.0 0.00 0.00 0.00 84 1013.8
20260507033007 74 230 0.0 0.0 0.00 0.00 0.00 84 1013.7
20260507031503 74 185 0.0 0.0 0.00 0.00 0.00 83 1013.7
20260507030012 74 225 0.0 0.0 0.00 0.00 0.00 83 1013.1
20260507024509 75 232 0.0 0.0 0.00 0.00 0.00 83 1013.8
20260507023007 74 238 0.0 0.0 0.00 0.00 0.00 82 1013.2
20260507021510 74 144 0.0 0.0 0.00 0.00 0.00 83 1013.4
20260507020009 74 237 0.0 0.0 0.00 0.00 0.00 83 1013.9
20260507014516 74 199 0.0 0.0 0.00 0.00 0.00 83 1014.0
20260507013020 74 223 0.0 0.0 0.00 0.00 0.00 82 1013.9
20260507011518 74 158 0.0 0.0 0.00 0.00 0.00 81 1014.1
20260507010012 74 209 0.0 0.0 0.00 0.00 0.00 80 1014.3
20260507004529 74 216 0.0 0.0 0.00 0.00 0.00 81 1014.2
20260507003012 74 175 0.0 0.0 0.00 0.00 0.00 80 1014.0
20260507001512 74 171 0.0 0.0 0.00 0.00 0.00 78 1014.1
20260507000024 74 227 0.0 0.0 0.00 0.00 0.00 77 1014.1
20260506234516 75 177 0.0 0.0 0.00 0.00 0.00 75 1014.4
20260506233012 75 218 0.0 0.0 0.00 0.00 0.00 74 1014.2
20260506231527 75 230 0.0 0.0 0.00 0.00 0.00 72 1014.3
20260506230013 76 184 0.0 0.0 0.00 0.00 0.00 70 1014.3
20260506224516 76 184 0.0 0.0 0.00 0.00 0.00 69 1014.2
20260506223010 77 161 0.0 0.0 0.00 0.00 0.00 67 1014.2
20260506221515 78 171 0.0 0.0 0.00 0.00 0.00 67 1014.0
20260506220019 78 202 0.0 0.0 0.00 0.00 0.00 66 1013.8
20260506214519 79 244 0.0 0.0 0.00 0.00 0.00 65 1014.1
20260506213018 79 189 0.0 0.0 0.00 0.00 0.00 64 1014.3
20260506211516 79 168 0.0 0.0 0.00 0.00 0.00 64 1014.3
20260506210022 80 232 0.0 0.0 0.00 0.00 0.00 63 1014.4
20260506204520 80 236 0.0 0.0 0.00 0.00 0.00 63 1014.2
20260506203025 80 235 0.0 0.0 0.00 0.00 0.00 64 1014.6
20260506201530 80 181 0.0 0.0 0.00 0.00 0.00 64 1014.7
20260506200019 80 217 0.0 0.0 0.00 0.00 0.00 63 1014.7
20260506194504 80 223 0.0 0.0 0.00 0.00 0.00 65 1014.9
20260506193009 80 205 0.0 0.0 0.00 0.00 0.00 64 1015.0
20260506191512 81 198 0.0 0.0 0.00 0.00 0.00 64 1015.1
20260506190018 81 229 0.0 0.0 0.00 0.00 0.00 61 1015.4
20260506184521 82 212 0.0 0.0 0.00 0.00 0.00 63 1015.8
20260506183004 81 233 0.0 0.0 0.00 0.00 0.00 65 1016.1
20260506181509 80 135 0.0 0.0 0.00 0.00 0.00 67 1016.0
20260506180015 80 208 0.0 0.0 0.00 0.00 0.00 67 1016.1
20260506174520 80 225 0.0 0.0 0.00 0.00 0.00 68 1016.4
20260506173024 80 209 0.0 0.0 0.00 0.00 0.00 68 1016.6
20260506171507 80 213 0.0 0.0 0.00 0.00 0.00 65 1016.7
20260506170106 80 197 0.0 0.0 0.00 0.00 0.00 66 1016.7
20260506164518 80 251 0.0 0.0 0.00 0.00 0.00 67 1016.6
20260506163022 80 178 0.0 0.0 0.00 0.00 0.00 66 1016.6
20260506161528 79 216 0.0 0.0 0.00 0.00 0.00 67 1016.9
20260506160011 79 235 0.0 0.0 0.00 0.00 0.00 66 1017.1
20260506154520 78 234 0.0 0.0 0.00 0.00 0.00 66 1017.0
20260506153020 78 224 0.0 0.0 0.00 0.00 0.00 65 1017.2
20260506151524 79 300 0.0 0.0 0.00 0.00 0.00 64 1017.2
20260506150012 78 208 0.0 0.0 0.00 0.00 0.00 58 1017.1
20260506144515 78 222 0.0 0.0 0.00 0.00 0.00 58 1016.9
20260506143028 78 212 0.0 0.0 0.00 0.00 0.00 63 1016.7
20260506141526 77 222 0.0 0.0 0.00 0.00 0.00 63 1016.7
20260506140026 76 221 0.0 0.0 0.00 0.00 0.00 62 1016.8
20260506134513 76 217 0.0 0.0 0.00 0.00 0.00 64 1016.5
20260506133019 75 220 0.0 0.0 0.00 0.00 0.00 67 1016.4
20260506131525 75 221 0.0 0.0 0.00 0.00 0.00 70 1016.4
20260506130030 0 0.0 0.0 0.00 0.00 0.00 1016.2
20260506124526 0 0.0 0.0 0.00 0.00 0.00 1016.1
20260506123030 0 0.0 0.0 0.00 0.00 0.00 1016.1
20260506121528 0 0.0 0.0 0.00 0.00 0.00 1016.2
20260506120038 0 0.0 0.0 0.00 0.00 0.00 1016.1
20260506114526 0 0.0 0.0 0.00 0.00 0.00 1015.9
20260506113032 0 0.0 0.0 0.00 0.00 0.00 1015.9
20260506111528 0 0.0 0.0 0.00 0.00 0.00 1015.6
20260506110031 0 0.0 0.0 0.00 0.00 0.00 1015.6
20260506104530 0 0.0 0.0 0.00 0.00 0.00 1015.7
20260506103030 0 0.0 0.0 0.00 0.00 0.00 1015.4
20260506101526 0 0.0 0.0 0.00 0.00 0.00 1015.5
20260506100028 0 0.0 0.0 0.00 0.00 0.00 1015.4
20260506094528 0 0.0 0.0 0.00 0.00 0.00 1015.4
20260506093029 0 0.0 0.0 0.00 0.00 0.00 1015.5
20260506091532 0 0.0 0.0 0.00 0.00 0.00 1015.5
20260506090041 0 0.0 0.0 0.00 0.00 0.00 1015.5
20260506084526 0 0.0 0.0 0.00 0.00 0.00 1015.6
20260506083032 0 0.0 0.0 0.00 0.00 0.00 1015.6
20260506081531 0 0.0 0.0 0.00 0.00 0.00 1015.6
20260506073015 66 187 0.0 0.0 0.00 0.00 0.00 83 1015.4
20260506071519 66 166 0.0 0.0 0.00 0.00 0.00 80 1015.4
20260506061540 68 191 0.0 0.0 0.00 0.00 0.00 79 1015.7
20260506044524 67 215 0.0 0.0 0.00 0.00 0.00 75 1016.5
20260506043017 68 228 0.0 0.0 0.00 0.00 0.00 75 1016.5
20260506041515 68 231 0.0 0.0 0.00 0.00 0.00 74 1016.6